Location: Goettingen
(51.5300°N, 9.9433°E)
Time: 14:26:33
(UTC+01:00)

ISS - Pass Details

Date: 28 November 2023
Orbit: 416 x 417 km, 51.6° (Epoch: 02 December)

Event Time Altitude Azimuth Distance (km) Brightness Sun altitude
Rises 17:26:28 0° 271° (W) 2,359 1.5 -10.4°
Reaches altitude 10° 17:28:33 10° 272° (W) 1,496 0.2 -10.7°
Maximum altitude 17:31:55 86° 359° (N) 424 -3.8 -11.2°
Enters shadow 17:34:22 17° 90° (E) 1,129 -2.2 -11.5°
